TimeAWST,TemperatureF,Dew PointF,Humidity,Sea Level PressureIn,VisibilityMPH,Wind Direction,Wind SpeedMPH,Gust SpeedMPH,PrecipitationIn,Events,Conditions,WindDirDegrees,DateUTC
12:00 AM,73,62,59,29.89,,WSW,4.6,,,,,250,2012-10-04 16:00:00
12:00 AM,73.4,60.8,65,29.89,-9999.0,WSW,4.6,-,N/A,,Unknown,250,2012-10-04 16:00:00
1:00 AM,71.6,64.4,78,29.89,-9999.0,SSW,5.8,-,N/A,,Unknown,210,2012-10-04 17:00:00
2:00 AM,71.6,68.0,88,29.86,-9999.0,SW,6.9,-,N/A,,Unknown,220,2012-10-04 18:00:00
3:00 AM,70,67,88,29.86,,SW,6.9,,,,,220,2012-10-04 19:00:00
3:00 AM,69.8,68.0,94,29.86,-9999.0,SSW,6.9,-,N/A,,Unknown,210,2012-10-04 19:00:00
4:00 AM,68.0,64.4,88,29.89,-9999.0,Calm,Calm,-,N/A,,Unknown,0,2012-10-04 20:00:00
5:00 AM,64.4,60.8,88,29.89,-9999.0,SW,1.2,-,N/A,,Unknown,230,2012-10-04 21:00:00
6:00 AM,65,64,96,29.93,,NNE,3.5,,,,,20,2012-10-04 22:00:00
6:00 AM,66.2,64.4,94,29.92,-9999.0,NNE,3.5,-,N/A,,Unknown,20,2012-10-04 22:00:00
7:00 AM,71.6,69.8,94,29.95,-9999.0,NE,1.2,-,N/A,,Unknown,50,2012-10-04 23:00:00
8:00 AM,80.6,66.2,61,29.98,-9999.0,South,2.3,-,N/A,,Unknown,170,2012-10-05 00:00:00
9:00 AM,85,62,36,29.96,,South,4.6,,,,,190,2012-10-05 01:00:00
9:00 AM,86.0,62.6,45,29.98,-9999.0,South,4.6,-,N/A,,Unknown,190,2012-10-05 01:00:00
10:00 AM,91.4,59.0,34,29.95,-9999.0,Calm,Calm,-,N/A,,Unknown,0,2012-10-05 02:00:00
11:00 AM,95.0,53.6,25,29.92,-9999.0,SW,6.9,-,N/A,,Unknown,220,2012-10-05 03:00:00
12:00 PM,98,49,11,29.88,,NNW,4.6,,,,,340,2012-10-05 04:00:00
12:00 PM,98.6,50.0,19,29.89,-9999.0,NNW,4.6,-,N/A,,Unknown,340,2012-10-05 04:00:00
1:00 PM,100.4,46.4,16,29.86,-9999.0,West,5.8,-,N/A,,Unknown,270,2012-10-05 05:00:00
2:00 PM,100.4,44.6,15,29.83,-9999.0,West,6.9,-,N/A,,Unknown,260,2012-10-05 06:00:00
3:00 PM,102,44,7,29.82,,WSW,5.8,,,,,250,2012-10-05 07:00:00
3:00 PM,102.2,44.6,14,29.83,-9999.0,WSW,5.8,-,N/A,,Unknown,250,2012-10-05 07:00:00
4:00 PM,102.2,42.8,13,29.83,-9999.0,ESE,1.2,-,N/A,,Unknown,120,2012-10-05 08:00:00
5:00 PM,98.6,41.0,14,29.83,-9999.0,SSW,3.5,-,N/A,,Unknown,200,2012-10-05 09:00:00
6:00 PM,88,55,23,29.85,,NW,6.9,,,,,310,2012-10-05 10:00:00
6:00 PM,87.8,55.4,33,29.86,-9999.0,NW,6.9,-,N/A,,Unknown,310,2012-10-05 10:00:00
7:00 PM,82.4,64.4,54,29.89,-9999.0,NW,5.8,-,N/A,,Unknown,310,2012-10-05 11:00:00
8:00 PM,78.8,64.4,61,29.92,-9999.0,NNW,3.5,-,N/A,,Unknown,340,2012-10-05 12:00:00
9:00 PM,80,60,40,29.91,,West,6.9,,,,,260,2012-10-05 13:00:00
9:00 PM,78.8,59.0,51,29.92,-9999.0,West,6.9,-,N/A,,Unknown,260,2012-10-05 13:00:00
10:00 PM,77.0,53.6,44,29.92,-9999.0,SW,5.8,-,N/A,,Unknown,220,2012-10-05 14:00:00
11:00 PM,77.0,55.4,47,29.89,-9999.0,SW,6.9,-,N/A,,Unknown,220,2012-10-05 15:00:00